This is the latest recevied weather packets stored in our database for station/object KC7KGF. If no packets are shown the sender has not sent any weather packets the latest 10 day(s).
| Time | Temp. | Humidity | Pressure | Rain* | Wind** | Luminosity | Snow |
|---|---|---|---|---|---|---|---|
| 1777725344 | 8.33° C | 51% | 1020.8 hPa | 0 mm | - | - | - |
| 1777723534 | 10° C | 47% | 1020.6 hPa | 0 mm | - | - | - |
| 1777721734 | 11.11° C | 46% | 1020.8 hPa | 0 mm | - | - | - |
| 1777719942 | 11.11° C | 46% | 1020.8 hPa | 0 mm | - | - | - |
| 1777718142 | 11.11° C | 44% | 1021 hPa | 0 mm | - | - | - |
| 1777716333 | 12.22° C | 41% | 1021.2 hPa | 0 mm | - | - | - |
| 1777714533 | 11.11° C | 42% | 1020.8 hPa | 0 mm | - | - | - |
| 1777712744 | 9.44° C | 44% | 1020.7 hPa | 0 mm | - | - | - |
| 1777710944 | 10.56° C | 43% | 1020.6 hPa | 0 mm | - | - | - |
| 1777709135 | 10.56° C | 41% | 1020.8 hPa | 0 mm | - | - | - |
| 1777707342 | 12.78° C | 36% | 1020.8 hPa | 0 mm | - | - | - |
| 1777705533 | 14.44° C | 34% | 1020.8 hPa | 0 mm | - | - | - |
| 1777703733 | 15° C | 32% | 1020.7 hPa | 0 mm | - | - | - |
| 1777701941 | 15.56° C | 32% | 1020.5 hPa | 0 mm | - | - | - |
| 1777700139 | 15.56° C | 32% | 1020.3 hPa | 0 mm | - | - | - |
| 1777698327 | 15° C | 35% | 1020 hPa | 0 mm | - | - | - |
| 1777696528 | 15° C | 32% | 1019.7 hPa | 0 mm | - | - | - |
| 1777694733 | 15.56° C | 32% | 1018.9 hPa | 0 mm | - | - | - |
| 1777692929 | 16.67° C | 30% | 1018.4 hPa | 0 mm | - | - | - |
| 1777691144 | 16.11° C | 31% | 1017.9 hPa | 0 mm | - | - | - |
| 1777689344 | 17.78° C | 29% | 1017.2 hPa | 0 mm | - | - | - |
| 1777687536 | 18.89° C | 27% | 1016.8 hPa | 0 mm | - | - | - |
| 1777685736 | 19.44° C | 26% | 1016.3 hPa | 0 mm | - | - | - |
| 1777683927 | 20.56° C | 24% | 1015.9 hPa | 0 mm | - | - | - |
| 1777682127 | 21.11° C | 22% | 1015.8 hPa | 0 mm | - | - | - |
* Rain latest hour (hover to see other rain measurements)
** Current wind speed in m/s (hover to see current wind gust speed)